owner,sensor,date,latitude,longitude,vertical_datum,direction_of_sea_water_velocity,sea_water_speed,upward_sea_water_velocity,qcFlag 
TABS,ioos:station:wmo:42051:1,1999-08-01T00:00:00Z,29.6350,-93.6417,2.0,56.9196638,22.93815163,-99999.0,'11111222,11111222,99999999' 
TABS,ioos:station:wmo:42051:1,1999-08-01T00:30:00Z,29.6350,-93.6417,2.0,45.85237428,21.39234676,-99999.0,'11111222,11111222,99999999' 
TABS,ioos:station:wmo:42051:1,1999-08-01T01:00:00Z,29.6350,-93.6417,2.0,58.63492922,15.17799723,-99999.0,'11111222,11111222,99999999' 
TABS,ioos:station:wmo:42051:1,1999-08-01T01:30:00Z,29.6350,-93.6417,2.0,53.26228486,23.42206225,-99999.0,'11111222,11111222,99999999' 
TABS,ioos:station:wmo:42051:1,1999-08-01T02:00:00Z,29.6350,-93.6417,2.0,54.28658276,23.48678352,-99999.0,'11111222,11111222,99999999' 
TABS,ioos:station:wmo:42051:1,1999-08-01T02:30:00Z,29.6350,-93.6417,2.0,51.91936446,22.71507209,-99999.0,'11111222,11111222,99999999' 
TABS,ioos:station:wmo:42051:1,1999-08-01T03:00:00Z,29.6350,-93.6417,2.0,41.04708899,21.33467131,-99999.0,'11111222,11111222,99999999' 
TABS,ioos:station:wmo:42051:1,1999-08-01T03:30:00Z,29.6350,-93.6417,2.0,34.23220794,21.98929967,-99999.0,'11111222,11111222,99999999' 
TABS,ioos:station:wmo:42051:1,1999-08-01T04:00:00Z,29.6350,-93.6417,2.0,31.35551067,22.3313524,-99999.0,'11111222,11111222,99999999' 
TABS,ioos:station:wmo:42051:1,1999-08-01T04:30:00Z,29.6350,-93.6417,2.0,33.02593163,24.87997588,-99999.0,'11111222,11111222,99999999' 
TABS,ioos:station:wmo:42051:1,1999-08-01T05:00:00Z,29.6350,-93.6417,2.0,31.89178913,25.09867925,-99999.0,'11111222,11111222,99999999' 
TABS,ioos:station:wmo:42051:1,1999-08-01T05:30:00Z,29.6350,-93.6417,2.0,26.42048775,24.78912867,-99999.0,'11111222,11111222,99999999' 
TABS,ioos:station:wmo:42051:1,1999-08-01T06:00:00Z,29.6350,-93.6417,2.0,26.85788214,25.38864707,-99999.0,'11111222,11111222,99999999' 
TABS,ioos:station:wmo:42051:1,1999-08-01T06:30:00Z,29.6350,-93.6417,2.0,31.48047126,25.67952686,-99999.0,'11111222,11111222,99999999' 
TABS,ioos:station:wmo:42051:1,1999-08-01T07:00:00Z,29.6350,-93.6417,2.0,27.49530979,24.51948001,-99999.0,'11111222,11111222,99999999' 
TABS,ioos:station:wmo:42051:1,1999-08-01T07:30:00Z,29.6350,-93.6417,2.0,29.25810209,24.08221335,-99999.0,'11111222,11111222,99999999' 
TABS,ioos:station:wmo:42051:1,1999-08-01T08:00:00Z,29.6350,-93.6417,2.0,28.69118223,23.26664995,-99999.0,'11111222,11111222,99999999' 
TABS,ioos:station:wmo:42051:1,1999-08-01T08:30:00Z,29.6350,-93.6417,2.0,20.04941733,19.98087586,-99999.0,'11111222,11111222,99999999' 
TABS,ioos:station:wmo:42051:1,1999-08-01T09:00:00Z,29.6350,-93.6417,2.0,13.12812391,18.35982843,-99999.0,'11111222,11111222,99999999' 
TABS,ioos:station:wmo:42051:1,1999-08-01T09:30:00Z,29.6350,-93.6417,2.0,17.29316152,19.04069326,-99999.0,'11111222,11111222,99999999' 
TABS,ioos:station:wmo:42051:1,1999-08-01T10:00:00Z,29.6350,-93.6417,2.0,18.14378489,18.65767938,-99999.0,'11111222,11111222,99999999' 
TABS,ioos:station:wmo:42051:1,1999-08-01T10:30:00Z,29.6350,-93.6417,2.0,25.07881969,17.93035415,-99999.0,'11111222,11111222,99999999' 
TABS,ioos:station:wmo:42051:1,1999-08-01T11:00:00Z,29.6350,-93.6417,2.0,21.81420028,16.84628149,-99999.0,'11111222,11111222,99999999' 
TABS,ioos:station:wmo:42051:1,1999-08-01T11:30:00Z,29.6350,-93.6417,2.0,22.86582186,16.49630565,-99999.0,'11111222,11111222,99999999' 
TABS,ioos:station:wmo:42051:1,1999-08-01T12:00:00Z,29.6350,-93.6417,2.0,17.4578865,2.96664794,-99999.0,'11133222,11111222,99999999' 
TABS,ioos:station:wmo:42051:1,1999-08-01T12:30:00Z,29.6350,-93.6417,2.0,22.82899027,17.29473041,-99999.0,'11111222,11111222,99999999' 
TABS,ioos:station:wmo:42051:1,1999-08-01T13:00:00Z,29.6350,-93.6417,2.0,324.588694,9.509079871,-99999.0,'11133222,11111222,99999999' 
TABS,ioos:station:wmo:42051:1,1999-08-01T13:30:00Z,29.6350,-93.6417,2.0,214.4008152,13.18623904,-99999.0,'11111222,11111222,99999999' 
TABS,ioos:station:wmo:42051:1,1999-08-01T14:00:00Z,29.6350,-93.6417,2.0,353.1498717,15.00713497,-99999.0,'11111222,11111222,99999999' 
TABS,ioos:station:wmo:42051:1,1999-08-01T14:30:00Z,29.6350,-93.6417,2.0,9.270586139,15.70512337,-99999.0,'11111222,11111222,99999999' 
TABS,ioos:station:wmo:42051:1,1999-08-01T15:00:00Z,29.6350,-93.6417,2.0,13.01820088,16.51443308,-99999.0,'11111222,11111222,99999999' 
TABS,ioos:station:wmo:42051:1,1999-08-01T15:30:00Z,29.6350,-93.6417,2.0,0.000210459,10.58,-99999.0,'11111222,11111222,99999999' 
TABS,ioos:station:wmo:42051:1,1999-08-01T16:00:00Z,29.6350,-93.6417,2.0,4.033364328,14.78661895,-99999.0,'11111222,11111222,99999999' 
TABS,ioos:station:wmo:42051:1,1999-08-01T16:30:00Z,29.6350,-93.6417,2.0,5.965671264,17.22326914,-99999.0,'11111222,11111222,99999999' 
TABS,ioos:station:wmo:42051:1,1999-08-01T17:00:00Z,29.6350,-93.6417,2.0,2.176325453,15.80139551,-99999.0,'11111222,11111222,99999999' 
TABS,ioos:station:wmo:42051:1,1999-08-01T17:30:00Z,29.6350,-93.6417,2.0,4.97138289,17.19467941,-99999.0,'11111222,11111222,99999999' 
TABS,ioos:station:wmo:42051:1,1999-08-01T18:00:00Z,29.6350,-93.6417,2.0,0.501910819,17.13065673,-99999.0,'11111222,11111222,99999999' 
TABS,ioos:station:wmo:42051:1,1999-08-01T18:30:00Z,29.6350,-93.6417,2.0,9.381132441,17.36219456,-99999.0,'11111222,11111222,99999999' 
TABS,ioos:station:wmo:42051:1,1999-08-01T19:00:00Z,29.6350,-93.6417,2.0,5.887397947,14.52661695,-99999.0,'11111222,11111222,99999999' 
TABS,ioos:station:wmo:42051:1,1999-08-01T19:30:00Z,29.6350,-93.6417,2.0,2.276665577,11.32894082,-99999.0,'11111222,11111222,99999999' 
TABS,ioos:station:wmo:42051:1,1999-08-01T20:00:00Z,29.6350,-93.6417,2.0,11.00065227,10.16680874,-99999.0,'11111222,11111222,99999999' 
TABS,ioos:station:wmo:42051:1,1999-08-01T20:30:00Z,29.6350,-93.6417,2.0,21.99909931,9.156691542,-99999.0,'11133222,11111222,99999999' 
TABS,ioos:station:wmo:42051:1,1999-08-01T21:00:00Z,29.6350,-93.6417,2.0,18.0575556,7.678176867,-99999.0,'11133222,11111222,99999999' 
TABS,ioos:station:wmo:42051:1,1999-08-01T21:30:00Z,29.6350,-93.6417,2.0,16.32877048,6.366804536,-99999.0,'11133222,11111222,99999999' 
TABS,ioos:station:wmo:42051:1,1999-08-01T22:00:00Z,29.6350,-93.6417,2.0,9.898447256,6.050057851,-99999.0,'11133222,11111222,99999999' 
TABS,ioos:station:wmo:42051:1,1999-08-01T22:30:00Z,29.6350,-93.6417,2.0,20.3372245,4.287248535,-99999.0,'11133222,11111222,99999999' 
TABS,ioos:station:wmo:42051:1,1999-08-01T23:00:00Z,29.6350,-93.6417,2.0,20.78840754,4.620822438,-99999.0,'11133222,11111222,99999999' 
TABS,ioos:station:wmo:42051:1,1999-08-01T23:30:00Z,29.6350,-93.6417,2.0,29.32863676,4.266907545,-99999.0,'11133222,11111222,99999999' 
TABS,ioos:station:wmo:42051:1,1999-08-02T00:00:00Z,29.6350,-93.6417,2.0,34.22004519,4.498810954,-99999.0,'11133222,11111222,99999999' 
TABS,ioos:station:wmo:42051:1,1999-08-02T00:30:00Z,29.6350,-93.6417,2.0,46.22593055,4.957953207,-99999.0,'11133222,11111222,99999999' 
TABS,ioos:station:wmo:42051:1,1999-08-02T01:00:00Z,29.6350,-93.6417,2.0,45.00010523,5.473006486,-99999.0,'11133222,11111222,99999999' 
TABS,ioos:station:wmo:42051:1,1999-08-02T01:30:00Z,29.6350,-93.6417,2.0,47.30709766,7.904789687,-99999.0,'11133222,11111222,99999999' 
TABS,ioos:station:wmo:42051:1,1999-08-02T02:00:00Z,29.6350,-93.6417,2.0,53.5135554,9.266207423,-99999.0,'11133222,11111222,99999999' 
TABS,ioos:station:wmo:42051:1,1999-08-02T02:30:00Z,29.6350,-93.6417,2.0,50.18664088,9.308281259,-99999.0,'11133222,11111222,99999999' 
TABS,ioos:station:wmo:42051:1,1999-08-02T03:00:00Z,29.6350,-93.6417,2.0,58.37936382,11.36767346,-99999.0,'11111222,11111222,99999999' 
TABS,ioos:station:wmo:42051:1,1999-08-02T03:30:00Z,29.6350,-93.6417,2.0,62.29305629,13.46380333,-99999.0,'11111222,11111222,99999999' 
TABS,ioos:station:wmo:42051:1,1999-08-02T04:00:00Z,29.6350,-93.6417,2.0,57.43607058,14.67742825,-99999.0,'11111222,11111222,99999999' 
TABS,ioos:station:wmo:42051:1,1999-08-02T04:30:00Z,29.6350,-93.6417,2.0,62.28156319,16.6620827,-99999.0,'11111222,11111222,99999999' 
TABS,ioos:station:wmo:42051:1,1999-08-02T05:00:00Z,29.6350,-93.6417,2.0,61.82686578,16.73237879,-99999.0,'11111222,11111222,99999999' 
TABS,ioos:station:wmo:42051:1,1999-08-02T05:30:00Z,29.6350,-93.6417,2.0,64.61215308,16.32674187,-99999.0,'11111222,11111222,99999999' 
TABS,ioos:station:wmo:42051:1,1999-08-02T06:00:00Z,29.6350,-93.6417,2.0,62.03972307,16.52944343,-99999.0,'11111222,11111222,99999999' 
TABS,ioos:station:wmo:42051:1,1999-08-02T06:30:00Z,29.6350,-93.6417,2.0,58.9498276,17.04183382,-99999.0,'11111222,11111222,99999999' 
TABS,ioos:station:wmo:42051:1,1999-08-02T07:00:00Z,29.6350,-93.6417,2.0,58.03919975,17.73906987,-99999.0,'11111222,11111222,99999999' 
TABS,ioos:station:wmo:42051:1,1999-08-02T07:30:00Z,29.6350,-93.6417,2.0,73.06587326,21.49188684,-99999.0,'11111222,11111222,99999999' 
TABS,ioos:station:wmo:42051:1,1999-08-02T08:00:00Z,29.6350,-93.6417,2.0,69.64775865,18.43058599,-99999.0,'11111222,11111222,99999999' 
TABS,ioos:station:wmo:42051:1,1999-08-02T08:30:00Z,29.6350,-93.6417,2.0,74.56831272,17.92627401,-99999.0,'11111222,11111222,99999999' 
TABS,ioos:station:wmo:42051:1,1999-08-02T09:00:00Z,29.6350,-93.6417,2.0,82.15792542,17.44313045,-99999.0,'11111222,11111222,99999999' 
TABS,ioos:station:wmo:42051:1,1999-08-02T09:30:00Z,29.6350,-93.6417,2.0,89.04674944,18.03249567,-99999.0,'11111222,11111222,99999999' 
TABS,ioos:station:wmo:42051:1,1999-08-02T10:00:00Z,29.6350,-93.6417,2.0,88.97940168,16.842672,-99999.0,'11111222,11111222,99999999' 
TABS,ioos:station:wmo:42051:1,1999-08-02T10:30:00Z,29.6350,-93.6417,2.0,87.90347511,16.40097863,-99999.0,'11111222,11111222,99999999' 
TABS,ioos:station:wmo:42051:1,1999-08-02T11:00:00Z,29.6350,-93.6417,2.0,89.4804044,16.54068016,-99999.0,'11111222,11111222,99999999' 
TABS,ioos:station:wmo:42051:1,1999-08-02T11:30:00Z,29.6350,-93.6417,2.0,93.53396012,16.87208345,-99999.0,'11111222,11111222,99999999' 
TABS,ioos:station:wmo:42051:1,1999-08-02T12:00:00Z,29.6350,-93.6417,2.0,91.37263619,12.52359373,-99999.0,'11111222,11111222,99999999' 
TABS,ioos:station:wmo:42051:1,1999-08-02T12:30:00Z,29.6350,-93.6417,2.0,93.59753989,11.79323959,-99999.0,'11111222,11111222,99999999' 
TABS,ioos:station:wmo:42051:1,1999-08-02T13:00:00Z,29.6350,-93.6417,2.0,98.2434277,11.43818167,-99999.0,'11111222,11111222,99999999' 
TABS,ioos:station:wmo:42051:1,1999-08-02T13:30:00Z,29.6350,-93.6417,2.0,96.85033881,15.00713497,-99999.0,'11111222,11111222,99999999' 
TABS,ioos:station:wmo:42051:1,1999-08-02T14:00:00Z,29.6350,-93.6417,2.0,102.321334,16.77642691,-99999.0,'11111222,11111222,99999999' 
TABS,ioos:station:wmo:42051:1,1999-08-02T14:30:00Z,29.6350,-93.6417,2.0,124.3621156,6.856566196,-99999.0,'11133222,11111222,99999999' 
TABS,ioos:station:wmo:42051:1,1999-08-02T15:00:00Z,29.6350,-93.6417,2.0,95.59859417,15.272855,-99999.0,'11111222,11111222,99999999' 
TABS,ioos:station:wmo:42051:1,1999-08-02T15:30:00Z,29.6350,-93.6417,2.0,109.371976,11.21493647,-99999.0,'11111222,11111222,99999999' 
TABS,ioos:station:wmo:42051:1,1999-08-02T16:00:00Z,29.6350,-93.6417,2.0,110.2945007,14.61742111,-99999.0,'11111222,11111222,99999999' 
TABS,ioos:station:wmo:42051:1,1999-08-02T16:30:00Z,29.6350,-93.6417,2.0,62.27377175,9.930181267,-99999.0,'11133222,11111222,99999999' 
TABS,ioos:station:wmo:42051:1,1999-08-02T17:00:00Z,29.6350,-93.6417,2.0,73.13517004,10.271772,-99999.0,'11111222,11111222,99999999' 
TABS,ioos:station:wmo:42051:1,1999-08-02T17:30:00Z,29.6350,-93.6417,2.0,36.51536088,10.01619189,-99999.0,'11111222,11111222,99999999' 
TABS,ioos:station:wmo:42051:1,1999-08-02T18:00:00Z,29.6350,-93.6417,2.0,41.20305445,9.503162631,-99999.0,'11133222,11111222,99999999' 
TABS,ioos:station:wmo:42051:1,1999-08-02T18:30:00Z,29.6350,-93.6417,2.0,41.96607268,8.015684625,-99999.0,'11133222,11111222,99999999' 
TABS,ioos:station:wmo:42051:1,1999-08-02T19:00:00Z,29.6350,-93.6417,2.0,36.87002189,6.7,-99999.0,'11133222,11111222,99999999' 
TABS,ioos:station:wmo:42051:1,1999-08-02T19:30:00Z,29.6350,-93.6417,2.0,58.09762344,6.490377493,-99999.0,'11133222,11111222,99999999' 
TABS,ioos:station:wmo:42051:1,1999-08-02T20:00:00Z,29.6350,-93.6417,2.0,41.55084202,5.171247432,-99999.0,'11133222,11111222,99999999' 
TABS,ioos:station:wmo:42051:1,1999-08-02T20:30:00Z,29.6350,-93.6417,2.0,47.13171349,2.851613578,-99999.0,'11133222,11111222,99999999' 
TABS,ioos:station:wmo:42051:1,1999-08-02T21:00:00Z,29.6350,-93.6417,2.0,9.531833731,2.717517249,-99999.0,'11133222,11111222,99999999' 
TABS,ioos:station:wmo:42051:1,1999-08-02T21:30:00Z,29.6350,-93.6417,2.0,9.531833731,2.717517249,-99999.0,'11133222,11111222,99999999' 
TABS,ioos:station:wmo:42051:1,1999-08-02T22:00:00Z,29.6350,-93.6417,2.0,14.14965346,2.454465319,-99999.0,'11133222,11111222,99999999' 
TABS,ioos:station:wmo:42051:1,1999-08-02T22:30:00Z,29.6350,-93.6417,2.0,356.6072073,2.53444274,-99999.0,'11133222,11111222,99999999' 
TABS,ioos:station:wmo:42051:1,1999-08-02T23:00:00Z,29.6350,-93.6417,2.0,356.6072073,2.53444274,-99999.0,'11133222,11111222,99999999' 
TABS,ioos:station:wmo:42051:1,1999-08-02T23:30:00Z,29.6350,-93.6417,2.0,341.6424186,2.34957443,-99999.0,'11133222,11111222,99999999' 
TABS,ioos:station:wmo:42051:1,1999-08-03T00:00:00Z,29.6350,-93.6417,2.0,0.000210459,4.17,-99999.0,'11133222,11111222,99999999' 
TABS,ioos:station:wmo:42051:1,1999-08-03T00:30:00Z,29.6350,-93.6417,2.0,357.1186335,2.98377278,-99999.0,'11133222,11111222,99999999' 
TABS,ioos:station:wmo:42051:1,1999-08-03T01:00:00Z,29.6350,-93.6417,2.0,13.09772867,4.589389938,-99999.0,'11133222,11111222,99999999' 
TABS,ioos:station:wmo:42051:1,1999-08-03T01:30:00Z,29.6350,-93.6417,2.0,34.51375023,5.78889454,-99999.0,'11133222,11111222,99999999' 
TABS,ioos:station:wmo:42051:1,1999-08-03T02:00:00Z,29.6350,-93.6417,2.0,5.475081638,6.288688257,-99999.0,'11133222,11111222,99999999' 
TABS,ioos:station:wmo:42051:1,1999-08-03T02:30:00Z,29.6350,-93.6417,2.0,32.19295226,6.156500629,-99999.0,'11133222,11111222,99999999' 
TABS,ioos:station:wmo:42051:1,1999-08-03T03:00:00Z,29.6350,-93.6417,2.0,46.60310976,7.583152379,-99999.0,'11133222,11111222,99999999' 
TABS,ioos:station:wmo:42051:1,1999-08-03T03:30:00Z,29.6350,-93.6417,2.0,39.25145525,8.471316309,-99999.0,'11133222,11111222,99999999' 
TABS,ioos:station:wmo:42051:1,1999-08-03T04:00:00Z,29.6350,-93.6417,2.0,30.78299965,8.14793839,-99999.0,'11133222,11111222,99999999' 
TABS,ioos:station:wmo:42051:1,1999-08-03T04:30:00Z,29.6350,-93.6417,2.0,68.40618337,7.689694402,-99999.0,'11133222,11111222,99999999' 
TABS,ioos:station:wmo:42051:1,1999-08-03T05:00:00Z,29.6350,-93.6417,2.0,117.098784,7.200451375,-99999.0,'11133222,11111222,99999999' 
TABS,ioos:station:wmo:42051:1,1999-08-03T05:30:00Z,29.6350,-93.6417,2.0,90.0,7.75,-99999.0,'11133222,11111222,99999999' 
TABS,ioos:station:wmo:42051:1,1999-08-03T06:00:00Z,29.6350,-93.6417,2.0,53.14201918,9.686000206,-99999.0,'11133222,11111222,99999999' 
TABS,ioos:station:wmo:42051:1,1999-08-03T06:30:00Z,29.6350,-93.6417,2.0,189.65966,6.197878669,-99999.0,'11133222,11111222,99999999' 
TABS,ioos:station:wmo:42051:1,1999-08-03T07:00:00Z,29.6350,-93.6417,2.0,230.4745555,4.446774112,-99999.0,'11133222,11111222,99999999' 
TABS,ioos:station:wmo:42051:1,1999-08-03T07:30:00Z,29.6350,-93.6417,2.0,198.4642748,6.125332644,-99999.0,'11133222,11111222,99999999' 
TABS,ioos:station:wmo:42051:1,1999-08-03T08:00:00Z,29.6350,-93.6417,2.0,178.7979593,7.151573253,-99999.0,'11133222,11111222,99999999' 
TABS,ioos:station:wmo:42051:1,1999-08-03T08:30:00Z,29.6350,-93.6417,2.0,176.0755956,6.575416337,-99999.0,'11133222,11111222,99999999' 
TABS,ioos:station:wmo:42051:1,1999-08-03T09:00:00Z,29.6350,-93.6417,2.0,159.3409278,7.171122646,-99999.0,'11133222,11111222,99999999' 
TABS,ioos:station:wmo:42051:1,1999-08-03T09:30:00Z,29.6350,-93.6417,2.0,178.89098,7.751451477,-99999.0,'11133222,11111222,99999999' 
TABS,ioos:station:wmo:42051:1,1999-08-03T10:00:00Z,29.6350,-93.6417,2.0,163.5293996,8.394456504,-99999.0,'11133222,11111222,99999999' 
TABS,ioos:station:wmo:42051:1,1999-08-03T10:30:00Z,29.6350,-93.6417,2.0,152.5496425,8.39520101,-99999.0,'11133222,11111222,99999999' 
TABS,ioos:station:wmo:42051:1,1999-08-03T11:00:00Z,29.6350,-93.6417,2.0,169.7011161,8.334272614,-99999.0,'11133222,11111222,99999999' 
TABS,ioos:station:wmo:42051:1,1999-08-03T11:30:00Z,29.6350,-93.6417,2.0,169.7011161,8.334272614,-99999.0,'11133222,11111222,99999999' 
TABS,ioos:station:wmo:42051:1,1999-08-03T12:00:00Z,29.6350,-93.6417,2.0,185.7484395,5.990125207,-99999.0,'11133222,11111222,99999999' 
TABS,ioos:station:wmo:42051:1,1999-08-03T12:30:00Z,29.6350,-93.6417,2.0,194.8044896,5.244091914,-99999.0,'11133222,11111222,99999999' 
TABS,ioos:station:wmo:42051:1,1999-08-03T13:00:00Z,29.6350,-93.6417,2.0,207.9073995,2.862953021,-99999.0,'11133222,11111222,99999999' 
TABS,ioos:station:wmo:42051:1,1999-08-03T13:30:00Z,29.6350,-93.6417,2.0,179.9997895,2.53,-99999.0,'11133222,11111222,99999999' 
TABS,ioos:station:wmo:42051:1,1999-08-03T14:00:00Z,29.6350,-93.6417,2.0,213.0641097,3.555840266,-99999.0,'11133222,11111222,99999999' 
TABS,ioos:station:wmo:42051:1,1999-08-03T14:30:00Z,29.6350,-93.6417,2.0,228.7116494,3.167412193,-99999.0,'11133222,11111222,99999999' 
TABS,ioos:station:wmo:42051:1,1999-08-03T15:00:00Z,29.6350,-93.6417,2.0,349.6339121,1.667213244,-99999.0,'11133222,11111222,99999999' 
TABS,ioos:station:wmo:42051:1,1999-08-03T15:30:00Z,29.6350,-93.6417,2.0,63.43501094,0.670820393,-99999.0,'11133222,11111222,99999999' 
TABS,ioos:station:wmo:42051:1,1999-08-03T16:00:00Z,29.6350,-93.6417,2.0,350.4335468,0.902551938,-99999.0,'11133222,11111222,99999999' 
TABS,ioos:station:wmo:42051:1,1999-08-03T16:30:00Z,29.6350,-93.6417,2.0,0.0,0.0,-99999.0,'11133222,11111222,99999999' 
TABS,ioos:station:wmo:42051:1,1999-08-03T17:00:00Z,29.6350,-93.6417,2.0,285.3441511,1.700617535,-99999.0,'11133222,11111222,99999999' 
TABS,ioos:station:wmo:42051:1,1999-08-03T17:30:00Z,29.6350,-93.6417,2.0,300.8508727,1.735569071,-99999.0,'11133222,11111222,99999999' 
TABS,ioos:station:wmo:42051:1,1999-08-03T18:00:00Z,29.6350,-93.6417,2.0,306.7931185,1.486001346,-99999.0,'11133222,11111222,99999999' 
TABS,ioos:station:wmo:42051:1,1999-08-03T18:30:00Z,29.6350,-93.6417,2.0,304.914863,1.817058062,-99999.0,'11133222,11111222,99999999' 
TABS,ioos:station:wmo:42051:1,1999-08-03T19:00:00Z,29.6350,-93.6417,2.0,335.3563676,2.134408583,-99999.0,'11133222,11111222,99999999' 
TABS,ioos:station:wmo:42051:1,1999-08-03T19:30:00Z,29.6350,-93.6417,2.0,339.1212424,2.076342939,-99999.0,'11133222,11111222,99999999' 
TABS,ioos:station:wmo:42051:1,1999-08-03T20:00:00Z,29.6350,-93.6417,2.0,346.940932,1.991506967,-99999.0,'11133222,11111222,99999999' 
TABS,ioos:station:wmo:42051:1,1999-08-03T20:30:00Z,29.6350,-93.6417,2.0,0.000210459,3.58,-99999.0,'11133222,11111222,99999999' 
TABS,ioos:station:wmo:42051:1,1999-08-03T21:00:00Z,29.6350,-93.6417,2.0,9.694186848,5.285470651,-99999.0,'11133222,11111222,99999999' 
TABS,ioos:station:wmo:42051:1,1999-08-03T21:30:00Z,29.6350,-93.6417,2.0,4.115109934,4.18077744,-99999.0,'11133222,11111222,99999999' 
TABS,ioos:station:wmo:42051:1,1999-08-03T22:00:00Z,29.6350,-93.6417,2.0,12.67141383,6.108780566,-99999.0,'11133222,11111222,99999999' 
TABS,ioos:station:wmo:42051:1,1999-08-03T22:30:00Z,29.6350,-93.6417,2.0,11.87353465,5.783744462,-99999.0,'11133222,11111222,99999999' 
TABS,ioos:station:wmo:42051:1,1999-08-03T23:00:00Z,29.6350,-93.6417,2.0,10.41189434,5.754754556,-99999.0,'11133222,11111222,99999999' 
TABS,ioos:station:wmo:42051:1,1999-08-03T23:30:00Z,29.6350,-93.6417,2.0,56.93567986,3.555840266,-99999.0,'11133222,11111222,99999999' 
TABS,ioos:station:wmo:42051:1,1999-08-04T00:00:00Z,29.6350,-93.6417,2.0,73.5102365,4.192433661,-99999.0,'11133222,11111222,99999999' 
TABS,ioos:station:wmo:42051:1,1999-08-04T00:30:00Z,29.6350,-93.6417,2.0,87.93989379,4.17269697,-99999.0,'11133222,11111222,99999999' 
TABS,ioos:station:wmo:42051:1,1999-08-04T01:00:00Z,29.6350,-93.6417,2.0,91.92195146,4.47251607,-99999.0,'11133222,11111222,99999999' 
TABS,ioos:station:wmo:42051:1,1999-08-04T01:30:00Z,29.6350,-93.6417,2.0,78.4078517,5.175567602,-99999.0,'11133222,11111222,99999999' 
TABS,ioos:station:wmo:42051:1,1999-08-04T02:00:00Z,29.6350,-93.6417,2.0,87.32041186,6.417016441,-99999.0,'11133222,11111222,99999999' 
TABS,ioos:station:wmo:42051:1,1999-08-04T02:30:00Z,29.6350,-93.6417,2.0,65.14765952,6.733572603,-99999.0,'11133222,11111222,99999999' 
TABS,ioos:station:wmo:42051:1,1999-08-04T03:00:00Z,29.6350,-93.6417,2.0,78.90772642,7.744682046,-99999.0,'11133222,11111222,99999999' 
TABS,ioos:station:wmo:42051:1,1999-08-04T03:30:00Z,29.6350,-93.6417,2.0,86.16041264,8.960111606,-99999.0,'11133222,11111222,99999999' 
TABS,ioos:station:wmo:42051:1,1999-08-04T04:00:00Z,29.6350,-93.6417,2.0,85.73739885,8.07232928,-99999.0,'11133222,11111222,99999999' 
TABS,ioos:station:wmo:42051:1,1999-08-04T04:30:00Z,29.6350,-93.6417,2.0,92.83410439,9.101131798,-99999.0,'11133222,11111222,99999999' 
TABS,ioos:station:wmo:42051:1,1999-08-04T05:00:00Z,29.6350,-93.6417,2.0,97.10808834,8.404593982,-99999.0,'11133222,11111222,99999999' 
TABS,ioos:station:wmo:42051:1,1999-08-04T05:30:00Z,29.6350,-93.6417,2.0,106.5227248,9.950904482,-99999.0,'11133222,11111222,99999999' 
TABS,ioos:station:wmo:42051:1,1999-08-04T06:00:00Z,29.6350,-93.6417,2.0,94.37153645,9.708243919,-99999.0,'11133222,11111222,99999999' 
TABS,ioos:station:wmo:42051:1,1999-08-04T06:30:00Z,29.6350,-93.6417,2.0,100.3202093,9.991646511,-99999.0,'11133222,11111222,99999999' 
TABS,ioos:station:wmo:42051:1,1999-08-04T07:00:00Z,29.6350,-93.6417,2.0,118.1343402,9.79765278,-99999.0,'11133222,11111222,99999999' 
TABS,ioos:station:wmo:42051:1,1999-08-04T07:30:00Z,29.6350,-93.6417,2.0,124.5322418,8.679222315,-99999.0,'11133222,11111222,99999999' 
TABS,ioos:station:wmo:42051:1,1999-08-04T08:00:00Z,29.6350,-93.6417,2.0,105.4008732,8.961807853,-99999.0,'11133222,11111222,99999999' 
TABS,ioos:station:wmo:42051:1,1999-08-04T08:30:00Z,29.6350,-93.6417,2.0,113.0614656,9.87952428,-99999.0,'11133222,11111222,99999999' 
TABS,ioos:station:wmo:42051:1,1999-08-04T09:00:00Z,29.6350,-93.6417,2.0,109.0406337,8.674612383,-99999.0,'11133222,11111222,99999999' 
TABS,ioos:station:wmo:42051:1,1999-08-04T09:30:00Z,29.6350,-93.6417,2.0,112.3838744,8.219300457,-99999.0,'11133222,11111222,99999999' 
TABS,ioos:station:wmo:42051:1,1999-08-04T10:00:00Z,29.6350,-93.6417,2.0,115.2150342,8.732032982,-99999.0,'11133222,11111222,99999999' 
TABS,ioos:station:wmo:42051:1,1999-08-04T10:30:00Z,29.6350,-93.6417,2.0,130.4119274,9.193562965,-99999.0,'11133222,11111222,99999999' 
TABS,ioos:station:wmo:42051:1,1999-08-04T11:00:00Z,29.6350,-93.6417,2.0,125.7820501,7.901423922,-99999.0,'11133222,11111222,99999999' 
TABS,ioos:station:wmo:42051:1,1999-08-04T11:30:00Z,29.6350,-93.6417,2.0,134.9998948,6.533666658,-99999.0,'11133222,11111222,99999999' 
TABS,ioos:station:wmo:42051:1,1999-08-04T12:00:00Z,29.6350,-93.6417,2.0,185.1095064,6.736772224,-99999.0,'11133222,11111222,99999999' 
TABS,ioos:station:wmo:42051:1,1999-08-04T12:30:00Z,29.6350,-93.6417,2.0,199.1822195,6.786825473,-99999.0,'11133222,11111222,99999999' 
TABS,ioos:station:wmo:42051:1,1999-08-04T13:00:00Z,29.6350,-93.6417,2.0,190.6145816,7.274482799,-99999.0,'11133222,11111222,99999999' 
TABS,ioos:station:wmo:42051:1,1999-08-04T13:30:00Z,29.6350,-93.6417,2.0,201.8232443,4.815080477,-99999.0,'11133222,11111222,99999999' 
TABS,ioos:station:wmo:42051:1,1999-08-04T14:00:00Z,29.6350,-93.6417,2.0,191.3096956,8.362392002,-99999.0,'11133222,11111222,99999999' 
TABS,ioos:station:wmo:42051:1,1999-08-04T14:30:00Z,29.6350,-93.6417,2.0,202.3836639,8.219300457,-99999.0,'11133222,11111222,99999999' 
TABS,ioos:station:wmo:42051:1,1999-08-04T15:00:00Z,29.6350,-93.6417,2.0,220.7874792,4.33212419,-99999.0,'11133222,11111222,99999999' 
TABS,ioos:station:wmo:42051:1,1999-08-04T15:30:00Z,29.6350,-93.6417,2.0,228.8364191,4.755344362,-99999.0,'11133222,11111222,99999999' 
TABS,ioos:station:wmo:42051:1,1999-08-04T16:00:00Z,29.6350,-93.6417,2.0,209.3282158,4.266907545,-99999.0,'11133222,11111222,99999999' 